[[{"header":{"parameterUnit":"m.s-1","parameterCategory":1,"la1":30.2992,"la2":30.254,"lo1":-89.0895,"lo2":-89.0443,"dy":0.0025,"dx":0.0025,"nx":19,"ny":19,"refTime":"2026-03-22T09:00:00:Z","depth":0,"parameterNumber":2,"parameterNumberName":"U-component_of_WINDS"},"data":[0,0,0,2.6802,2.6805,2.698,2.6981,2.7224,2.7227,0,0,0,0,0,0,0,0,0,0,0,2.6758,2.676,2.6801,2.6806,2.698,2.6981,2.7224,2.7227,0,0,0,0,0,0,0,0,0,0,0,2.6757,2.6759,2.6762,2.6807,2.698,2.6981,2.7223,2.7085,0,0,0,0,0,0,0,0,0,0,2.6913,2.6879,2.6759,2.6762,2.6808,2.698,2.6981,2.7079,2.7094,2.7152,0,2.7203,0,2.7219,2.7244,2.7245,0,0,0,2.6801,2.6866,2.6906,2.6762,2.6809,2.698,2.69,2.7087,2.7105,2.7173,2.7206,2.7215,2.7223,2.7245,2.7247,2.7592,2.7594,0,0,2.6791,2.6795,2.6894,2.6917,2.6887,2.6895,2.6906,2.7097,2.7135,2.7207,2.722,2.7227,2.7247,2.7249,2.759,2.7592,0,0,0,2.6767,2.6788,2.6822,2.6908,2.6938,2.69,2.6913,2.7127,2.7137,2.7223,2.7229,2.7249,2.7252,2.7588,2.7591,2.7684,0,0,0,2.6761,2.6774,2.6818,2.6822,2.6934,2.7034,2.6938,2.7124,2.7146,2.7228,2.7249,2.7254,2.7586,2.759,2.7677,2.7728,0,0,0,2.6744,2.6772,2.6799,2.6822,2.6897,2.703,2.7052,2.7129,2.715,2.7245,2.7255,2.7585,2.7589,2.7671,2.7718,2.782,0,0,0,2.6728,2.6881,2.6801,2.6976,2.6896,2.7086,2.7051,2.7193,2.7285,2.725,2.7586,2.7591,2.7669,2.7712,2.7814,2.7907,2.7945,0,0,2.6923,2.6905,2.7007,2.6941,2.7145,2.7059,2.7279,2.7362,2.737,2.7518,2.7527,2.768,2.7717,2.7819,2.8161,2.8192,0,0,0,2.7071,2.7145,2.7198,2.7284,2.735,2.7411,2.7459,2.7491,2.7616,2.7445,2.7744,2.7766,2.7826,2.787,2.7897,2.7948,2.7611,2.7611,2.761,2.7353,2.7352,2.7523,2.7544,2.7629,2.7677,2.7747,2.7798,2.7774,2.7845,2.7889,2.8096,2.8149,2.8168,2.8222,2.7938,2.7938,2.7939,2.7939,2.764,2.7745,2.7709,2.786,2.7861,2.799,2.8044,2.8023,2.8145,2.8063,2.8115,2.8026,2.8202,2.8249,2.7946,2.7945,2.7944,2.7943,2.7943,2.7825,2.7875,2.7909,2.8034,2.8132,2.815,2.8268,2.8265,2.8263,2.8315,2.8362,2.836,2.8359,2.8337,2.8338,2.8339,2.8339,2.834,2.834,2.8003,2.8038,2.8137,2.8219,2.8275,2.8349,2.84,2.8456,2.8518,2.8507,2.8507,2.8478,2.8218,2.8153,2.8352,2.835,2.8348,2.8347,2.8346,2.8294,2.8228,2.838,2.8436,2.8534,2.8633,2.8627,2.8742,2.8788,2.8847,2.8807,2.8615,2.8597,2.8577,2.8523,2.8805,2.8805,2.8805,2.8805,2.845,2.844,2.8595,2.8685,2.8773,2.8783,2.896,2.9003,2.9037,2.9067,2.9026,2.8954,2.8933,2.8928,2.8899,2.8849,2.9208,2.9208,2.9209,2.863,2.8628,2.8777,2.8806,2.8884,2.8951,2.9117,2.9225,2.925,2.9225,2.909,2.9073,2.8958,2.892,2.8891,2.8847,2.8755,0,0]},{"header":{"parameterUnit":"m.s-1","parameterCategory":1,"la1":30.2992,"la2":30.254,"lo1":-89.0895,"lo2":-89.0443,"dy":0.0025,"dx":0.0025,"nx":19,"ny":19,"refTime":"2026-03-22T09:00:00:Z","depth":0,"parameterNumber":3,"parameterNumberName":"V-component_of_WINDS"},"data":[0,0,0,4.7696,4.7703,4.8047,4.8049,4.8473,4.8477,0,0,0,0,0,0,0,0,0,0,0,4.7585,4.7588,4.7695,4.7704,4.8047,4.8049,4.8473,4.8477,0,0,0,0,0,0,0,0,0,0,0,4.7584,4.7587,4.759,4.7705,4.8047,4.8049,4.8472,4.8218,0,0,0,0,0,0,0,0,0,0,4.7886,4.7775,4.7586,4.759,4.7707,4.8046,4.8049,4.8206,4.8234,4.8311,0,4.8377,0,4.8434,4.8504,4.8506,0,0,0,4.7711,4.7752,4.7853,4.7591,4.771,4.8046,4.7894,4.8221,4.8253,4.8348,4.8384,4.84,4.8441,4.8507,4.8509,4.8932,4.8934,0,0,4.7692,4.7642,4.7831,4.7873,4.7819,4.7883,4.7905,4.8241,4.8276,4.8385,4.841,4.8448,4.851,4.8513,4.8931,4.8933,0,0,0,4.7633,4.7628,4.7722,4.7855,4.7918,4.7893,4.7918,4.8262,4.8296,4.8415,4.8453,4.8512,4.8517,4.8929,4.8931,4.8965,0,0,0,4.7621,4.7594,4.7713,4.7686,4.7911,4.8094,4.7931,4.8273,4.8312,4.8451,4.8512,4.8521,4.8927,4.893,4.896,4.8989,0,0,0,4.7566,4.7588,4.7634,4.7682,4.7829,4.809,4.8144,4.8282,4.8335,4.8506,4.8522,4.8926,4.893,4.8956,4.8983,4.9086,0,0,0,4.7492,4.7659,4.7634,4.7835,4.7825,4.8108,4.8142,4.8355,4.8506,4.8514,4.8927,4.8931,4.8955,4.8978,4.9081,4.9165,4.9195,0,0,4.7675,4.7679,4.7802,4.7789,4.8063,4.8059,4.8339,4.8524,4.8585,4.8813,4.8824,4.8962,4.8982,4.9085,4.938,4.9403,0,0,0,4.7843,4.7931,4.8014,4.8155,4.83,4.8427,4.8574,4.8642,4.8838,4.8692,4.9029,4.9042,4.9105,4.9147,4.9167,4.9224,4.8948,4.8948,4.8948,4.8031,4.8101,4.8309,4.842,4.8556,4.8706,4.8823,4.8941,4.8972,4.905,4.9118,4.9288,4.9335,4.9351,4.9409,4.9167,4.9167,4.9168,4.9168,4.8306,4.8441,4.8478,4.8693,4.8765,4.8946,4.9097,4.9113,4.9292,4.9242,4.9301,4.9241,4.9374,4.9429,4.9171,4.917,4.917,4.917,4.917,4.8438,4.8514,4.8595,4.8806,4.896,4.9067,4.9237,4.9298,4.9355,4.9413,4.9492,4.9492,4.9499,4.9446,4.9447,4.9448,4.9448,4.9449,4.9449,4.8542,4.8632,4.8768,4.8936,4.9034,4.9171,4.9323,4.9422,4.9546,4.9577,4.9578,4.96,4.9374,4.9316,4.9459,4.9457,4.9456,4.9455,4.9454,4.8795,4.8747,4.8957,4.9056,4.9258,4.9408,4.9482,4.9678,4.9768,4.985,4.9861,4.9683,4.9692,4.9677,4.9629,4.9845,4.9845,4.9845,4.9845,4.8906,4.8916,4.9145,4.9298,4.9456,4.9544,4.978,4.9899,5.0016,5.0076,5.0053,4.9995,4.9977,4.9997,4.9974,4.9931,5.0218,5.0219,5.0219,4.9066,4.9094,4.9283,4.9396,4.9558,4.9696,4.992,5.0095,5.0216,5.0235,5.0124,5.0108,5.0015,4.9981,4.9997,4.9961,4.9883,0,0]}]]